#timestamp,LO_Frequency,Hit,StdDev 
1514145615.2,286047004.4,P
1514145635.1,286047003.8,P
1514145636.0,286047003.8,Y
1514145655.8,286046999.3,P
1514145675.7,286046995.2,N
1514145695.5,286046995.9,N
1514145715.3,286046995.4,N
1514145735.2,286046994.9,N
1514145755.0,286046997.4,N
1514145755.9,286046997.4,N
1514145775.8,286046995.7,N
1514145795.6,286046997.8,N
1514145815.4,286046993.9,N
1514145835.3,286046993.9,N
1514145855.1,286046996.3,N
1514145875.8,286046995.6,N
1514145895.7,286046998.8,N
1514145915.5,286046999.1,N
1514145935.4,286046999.1,N
1514145955.2,286046998.2,N
1514145975.0,286046999.6,N
1514145975.9,286046999.6,N
1514145995.8,286046996.6,N
1514146015.6,286046996.8,N
1514146035.4,286046997.4,N
1514146055.3,286046999.3,N
1514146075.1,286046999.1,N
1514146095.9,286046999.0,N
1514146115.7,286046997.2,N
1514146135.5,286046995.0,N
1514146155.4,286046995.4,N
1514146175.2,286046995.8,N
1514146195.1,286046995.6,N
1514146196.0,286046995.6,N
1514146215.8,286046997.0,N
1514146235.6,286046995.3,N
1514146255.5,286046996.7,N
1514146275.3,286046996.4,N
1514146295.1,286046998.0,N
1514146315.9,286046996.7,N
1514146335.7,286047001.2,N
1514146355.6,286046998.1,N
1514146375.4,286046997.0,N
1514146395.2,286046997.3,N
1514146415.1,286046996.6,N
1514146416.0,286046996.6,N
1514146435.8,286046999.0,N
1514146455.7,286046998.5,N
1514146475.5,286047001.1,N
1514146495.3,286046998.6,N
1514146515.2,286047000.4,N
1514146535.0,286046996.7,N
1514146535.9,286046996.7,N
1514146555.7,286046995.2,N
1514146575.6,286046997.9,N
1514146595.4,286046996.1,N
1514146615.3,286046993.4,Y
1514146635.1,286046997.1,P
1514146655.8,286046999.6,P
1514146675.7,286046996.5,P
1514146695.5,286047000.6,N
1514146715.4,286047000.6,N
1514146735.2,286047000.3,N
1514146755.0,286047004.2,N
1514146755.9,286047004.2,N
1514146775.8,286047006.0,N
1514146795.6,286047004.1,N
1514146815.4,286047002.6,N
1514146835.3,286047001.4,N
1514146855.1,286047004.3,N
1514146875.9,286047001.6,N
1514146895.7,286047002.7,N
1514146915.5,286046999.7,N
1514146935.4,286047000.7,N
1514146955.2,286046999.3,N
1514146975.0,286046997.9,N
1514146976.0,286046997.9,N
1514146995.8,286046999.1,N
1514147015.6,286047001.2,N
1514147035.5,286047000.4,N
1514147055.3,286046998.5,N
1514147075.1,286047000.3,N
1514147095.9,286047002.6,N
1514147115.7,286046999.8,N
1514147135.6,286047002.0,N
1514147155.4,286047000.5,N
1514147175.2,286047000.7,N
1514147195.1,286047001.1,N
1514147196.0,286047001.1,N
1514147215.8,286046999.3,N
1514147235.7,286046999.9,N
1514147255.5,286047000.5,N
1514147275.3,286047001.1,N
1514147295.2,286047000.6,N
1514147315.0,286047002.2,N
1514147315.9,286047002.2,N
1514147335.7,286047001.5,N
1514147355.6,286047001.5,N
1514147375.4,286047004.4,Y
1514147395.3,286046998.8,P
1514147415.1,286046999.1,N
1514147435.8,286047001.2,N
1514147455.7,286047000.2,N
1514147475.5,286047001.2,N
1514147495.4,286046998.6,N
1514147515.2,286046999.2,N
1514147535.0,286046999.5,N
1514147535.9,286046999.5,N
1514147555.8,286046996.7,Y
1514147575.6,286046999.1,P
1514147595.5,286047000.6,N
1514147615.3,286047000.9,N
1514147635.1,286046997.4,Y
1514147655.9,286046997.7,P
1514147675.7,286046996.6,N
1514147695.5,286046997.5,N
1514147715.4,286046999.6,N
1514147735.2,286046998.6,N
1514147755.1,286046996.6,N
1514147756.0,286046996.6,N
1514147775.8,286046999.4,N
1514147795.6,286046995.0,Y
1514147815.5,286046995.8,P
1514147835.3,286046996.0,P
1514147855.2,286046997.3,N
1514147875.9,286047001.1,N
1514147895.7,286046999.9,N
1514147915.6,286047000.4,N
1514147935.4,286047002.2,N
1514147955.2,286046999.8,N
1514147975.1,286047002.2,N
1514147976.0,286047002.2,N
1514147995.8,286047002.6,N
1514148015.7,286046999.8,N
1514148035.5,286047001.0,N
1514148055.3,286046998.7,N
1514148075.2,286046998.8,N
1514148095.0,286046999.1,N
1514148095.9,286046999.1,N
1514148115.8,286046996.9,N
1514148135.6,286046999.2,N
1514148155.4,286046999.5,N
1514148175.3,286046999.5,N
1514148195.1,286047001.2,N
1514148215.8,286047000.2,N
1514148235.7,286047001.0,N
1514148255.5,286046998.6,N
1514148275.4,286046999.2,N
1514148295.2,286046996.7,N
1514148315.0,286046997.0,N
1514148315.9,286046997.0,N
1514148335.8,286046996.9,N
1514148355.6,286046999.2,N
1514148375.5,286046996.6,N
1514148395.3,286046996.2,N
1514148415.1,286046995.5,N
1514148435.9,286046995.6,N
1514148455.7,286046996.5,N
1514148475.6,286046997.6,N
1514148495.4,286046998.5,N
1514148515.2,286047001.2,N
1514148535.1,286047000.8,N
1514148536.0,286047000.8,N
1514148555.8,286047002.4,N
1514148575.6,286047002.0,N
1514148595.5,286046999.7,N
1514148615.3,286046999.9,N
1514148635.2,286047000.8,N
1514148655.9,286047002.4,N
1514148675.7,286047000.8,N
1514148695.6,286046999.7,N
1514148715.4,286047000.3,N
1514148735.3,286047001.3,N
1514148755.1,286047004.2,N
1514148756.0,286047004.2,N
1514148775.8,286046998.1,N
1514148795.7,286046996.6,N
1514148815.5,286046998.6,N
1514148835.4,286047000.8,N
1514148855.2,286047001.2,N
1514148875.0,286046998.4,N
1514148875.9,286046998.4,N
1514148895.8,286046998.4,N
1514148915.6,286046996.6,N
1514148935.4,286046999.8,N
1514148955.3,286047001.4,N
1514148975.1,286047004.3,N
1514148995.9,286047004.3,N
1514149015.7,286047001.3,N
1514149035.5,286047003.9,N
1514149055.4,286047003.7,N
1514149075.2,286047002.6,N
1514149095.1,286047002.6,N
1514149096.0,286047002.6,N
1514149115.8,286047002.4,N
1514149135.6,286046999.7,N
1514149155.5,286047001.9,N
1514149175.3,286047004.1,N
1514149195.1,286047000.6,N
